Flag for Spain Weather past 2 weeks in Santander, Spain

Now
48 °F

Clear.


Feels Like: 48 °F
Forecast: 53 / 77 °F
Wind: No wind

Location: Santander / Parayas

Current Time: Oct 23, 2014 at 7:38:58 AM

Latest Report: Oct 23, 2014 at 7:00 AM


Visibility: 10 mi

Pressure: 30.27 "Hg

Humidity: 87%

Dew point: 45 °F

Location of SantanderLocation

Historic Weather in Santander — Graph

°F

Santander temperature yesterday

Maximum temperature yesterday: 66 °F (at 1:00 PM)
Minimum temperature yesterday: 55 °F (at 10:30 PM)
Average temperature yesterday: 62 °F

Past Weeks' High & Low Weather Summary

 TemperatureHumidityPressure
High86 °F (Oct 18, 3:30 PM)100% (Oct 8, 10:00 PM)30.48 "Hg (Oct 8, 10:00 PM)
Low48 °F (Oct 23, 6:30 AM)25% (Oct 18, 4:00 PM)29.50 "Hg (Oct 12, 7:30 AM)
Average66 °F73%29.91 "Hg
* Reported Oct 8 6:00 AM — Oct 23 6:30 AM, Santander, Weather by CustomWeather, © 2014

Note: Actual official high and low records may vary slightly from our data, if they occured in-between our weather recording intervals... More about our weather records

Advertising

Santander weather history for previous 24 hours

 ConditionsComfort  
Time TempWeatherWind HumidityBarometerVisibility
6:30 AM
Oct 23
48 °FClear.1 mph87%30.27 "Hg10 mi
6:00 AM50 °FClear.2 mph88%30.27 "Hg10 mi
5:30 AM50 °FClear.1 mph82%30.30 "Hg10 mi
11:00 PM
Oct 22
55 °FClear.No wind88%30.36 "Hg10 mi
10:30 PM55 °FClear.No wind82%30.39 "Hg10 mi
10:00 PM57 °FClear.No wind82%30.39 "Hg10 mi
9:30 PM59 °FClear.2 mph77%30.39 "Hg10 mi
9:00 PM59 °FPassing clouds.3 mph77%30.39 "HgN/A
8:30 PM59 °FPassing clouds.3 mph77%30.39 "HgN/A
8:00 PM61 °FSunny.5 mph72%30.39 "Hg10 mi
7:30 PM61 °FSunny.7 mph72%30.36 "Hg10 mi
7:00 PM63 °FPassing clouds.8 mph68%30.39 "HgN/A
6:30 PM64 °FSunny.8 mph64%30.39 "Hg10 mi
6:00 PM66 °FPassing clouds.7 mph60%30.39 "HgN/A
5:30 PM66 °FSunny.12 mph60%30.39 "Hg10 mi
5:00 PM66 °FPassing clouds.10 mph60%30.39 "HgN/A
4:30 PM66 °FPassing clouds.8 mph60%30.39 "HgN/A
4:00 PM66 °FPassing clouds.9 mph56%30.42 "HgN/A
3:30 PM66 °FPassing clouds.8 mph60%30.42 "HgN/A
3:00 PM66 °FPassing clouds.7 mph60%30.42 "HgN/A
2:30 PM66 °FPassing clouds.6 mph60%30.45 "HgN/A
2:00 PM64 °FPassing clouds.7 mph60%30.45 "HgN/A
1:30 PM66 °FScattered clouds.2 mph52%30.45 "HgN/A
1:00 PM66 °FScattered clouds.2 mph56%30.48 "HgN/A
12:30 PM64 °FScattered clouds.6 mph60%30.48 "HgN/A
12:00 PM64 °FScattered clouds.5 mph60%30.48 "HgN/A
11:30 AM64 °FPartly sunny.6 mph60%30.48 "HgN/A
11:00 AM61 °FPartly sunny.No wind77%30.48 "HgN/A
10:30 AM61 °FPartly sunny.2 mph83%30.48 "HgN/A
10:00 AM59 °FPartly sunny.No wind88%30.48 "HgN/A
9:30 AM59 °FPassing clouds.2 mph88%30.48 "HgN/A
9:00 AM59 °FPartly cloudy.1 mph88%30.45 "HgN/A
8:30 AM59 °FPartly cloudy.1 mph88%30.45 "HgN/A
8:00 AM59 °FPartly cloudy.1 mph88%30.45 "HgN/A
7:30 AM59 °FPassing clouds.2 mph88%30.45 "HgN/A
7:00 AM59 °FPartly cloudy.2 mph94%30.45 "HgN/A
Weather by CustomWeather, © 2014

See weather overviewHow to use our weather pages